Погода Покровская

Погода Покровская : погода сейчас, прогноз погоды и архив. Всё, что Вы хотите узнать о погоде Покровская!

Хотите узнать прогноз погоды Покровская? Тогда Вам сюда: Погода Покровская

Поиск расширенной информации на нашем сайте:

Другие новости

Новости СМИ2

Главная страница сайта

Новости сайта

02.10.2013

Напоминаем, что на нашем новом сайте вы можете получить высокодетализированные прогнозы погоды по пунктам России, СНГ и мира (включающие важные для авиации метеовеличины, такие как направление и скорость ветра, видимость, явления погоды, количество и форма облачности, нижняя и верхняя граница облачности), а также ознакомиться с разнообразными материалами по авиационной метеорологии и подборкой полезных ссылок на эту тему.

Сайт Метеоцентр.Азия посвящён разработке технологий оптимизации авиаметеорологического обслуживания, включая проектирование и перспективное создание нескольких автоматизированных авиаметеорологических систем:
- система выпуска высокодетальных прогностических карт явлений погоды для нижнего воздушного пространства по России и ближнему зарубежью;
- система верификации прогнозов TAF (выпускаемых синоптиками официальных АМСГ РФ и ближнего зарубежья) и AUTOTAF (выпускаемых сайтом Метеоцентр.Азия) - выявление ошибок, онлайн-сопоставление с фактической погодой METAR, автоматическое внесение коррективов в прогнозы при резком отклонении фактической погоды от прогноза, подсчёт оправдываемости прогнозов по элементам и в целом;
- система обработки, анализа и отображения авиаметеорологической информации для применения провайдерами метеорологической информации.

Рекомендуем: Насколько актуальны услуги прачечных.

Погода Покровская - сегодня

Время (UTC), дата Ветер
(°,м/с) 
Видим.   Явления Облачность Т
(°С)
Тd
(°С)
f(%) Тe
(°С)
Pmin
(гПа)
dP
(гПа)
Po
(мм)
O2
(г/м3)
Тmin Tmax R s Состояние
почвы
09 26.03.17 190 (Ю) 20000 м    6/6 1000 м верхняя 
[Sc|Ci fib]
+1.9 -7.9 48 +1  1017.7  -0.3  752  302           
12 26.03.17 270 (З) 20000 м    10/6 1000 м верхняя 
[Sc|Ci fib]
-5.3 -8.2 80 -5  1017.9  -0.2  752  310    +3.8       
15 26.03.17 250 (З) 20000 м    ясно 
-11.6 -12.9 90 -11  1017.6  -0.6  751  317           
18 26.03.17 250 (З) 20000 м    ясно 
-14.9 -16.2 90 -17  1016.9  -0.9  751  321           
21 26.03.17 260 (З) 20000 м    ясно 
-18 -19.9 85 -18  1016.2  -0.9  750  325           
00 27.03.17 050 (СВ) 20000 м    ясно 
-8.5 -12.3 74 -8  1014.8  -0.8  749  313  -19.2      24  равномерный
сухой снег
100% 
03 27.03.17 040 (СВ) 20000 м    ясно 
-2.7 -8 67 -5  1012.8  -1.6  748  305           
06 27.03.17 040 (СВ) 20000 м    ясно 
+2.2 -7.8 48 +2  1010.5  -2  747  299           
09 27.03.17 040 (СВ) 20000 м    ясно 
+3.1 -6.4 50 +3  1009.6  -0.8  746  298           
12 27.03.17 270 (З) 20000 м    ясно 
-6.2 -8.9 81 -6  1010.3  0.1  746  309    +4.3       
15 27.03.17 250 (З) 20000 м    ясно 
-10.6 -12.6 85 -12  1010.4  -0.1  746  314           
18 27.03.17 250 (З) 20000 м    ясно 
-11.3 -13.3 85 -13  1011.8  1.3  747  315           
21 27.03.17 270 (З) 20000 м    10/0 средняя, верхняя 
[Ac trans|Ci fib]
-10.5 -11.8 90 -12  1013.7  1.9  748  315           
00 28.03.17 130 (ЮВ) 20000 м    6/0 средняя, верхняя 
[Ac trans|Ci fib]
-1.3 -6.4 68 -3  1015.4  0.2  750  304  -12.9      24  равномерный
сухой снег
100% 
03 28.03.17 300 (СЗ) 20000 м    6/4 1000 м верхняя 
[Cu med, cong|Ci fib]
+1.5 -7.8 50 -1  1016.5  1.3  751  302           
06 28.03.17 320 (СЗ) 20000 м    6/4 1000 м верхняя 
[Cu med, cong|Ci fib]
+2.1 -11.1 37 1017.2  0.7  752  302           
09 28.03.17 320 (СЗ) 20000 м    4/4 1000 м 
[Cu med, cong]
+1.4 -11.5 38 -1  1019  1.7  753  303           
12 28.03.17 310 (СЗ) 20000 м    4/4 1000 м 
[Cu med, cong]
-3.1 -8.7 65 -5  1021.8  2.6  755  309    +3.4       
15 28.03.17 270 (З) 20000 м    3/3 1000 м 
[Cu med, cong]
-12.2 -15.7 75 -14  1023.1  0.6  755  320           
18 28.03.17 250 (З) 20000 м    3/3 1000 м 
[Cu med, cong]
-15.9 -17.2 90 -18  1023.8  0.5  756  325           
21 28.03.17 260 (З) 20000 м    ясно 
-18.5 -20.4 85 -21  1024.4  0.5  756  328           
00 29.03.17 220 (ЮЗ) 20000 м    ясно 
-9.7 -14.4 69 -14  1024.3  0.4  756  317  -19      23  равномерный
сухой снег
100% 
03 29.03.17 210 (ЮЗ) 20000 м    ясно 
-4.7 -9.9 67 -9  1023.7  -0.3  756  311           
06 29.03.17 260 (З) 20000 м    ясно 
+1.7 -8.8 46 -1  1022.6  -0.7  756  303           
09 29.03.17 280 (З) 20000 м    6/3 600 м верхняя 
[Cu hum|Ci fib]
+2.1 -10.4 39 +1  1022.7  0.1  756  303           
Время (UTC), дата Ветер
(°,м/с) 
Видим.   Явления Облачность Т
(°С)
Тd
(°С)
f(%) Тe
(°С)
Pmin
(гПа)
dP
(гПа)
Po
(мм)
O2
(г/м3)
Тmin Tmax R s Состояние
почвы

Для получения пояснительной информации подведите курсор к названию столбца.

ПОГОДА Покровская - архив

Всё, что Вы хотите узнать о погоде Покровская - удобно и подробно!

Выберите нужную дату (начиная с 1 января 2015* года) и нажмите кнопку "Найти".
Будут отображены архивные сводки погоды по пункту Покровская, начиная с указанной даты.


Отображать данные в формате CSV (для использования в таблицах Excel)


Внимание! Наш архив погоды предназначен исключительно для личного некоммерческого использования в познавательных целях. Если Вам необходимы официальные справки о состоянии погоды (для производственных, юридических, коммерческих и т.п. целей), обращайтесь в органы Росгидромета.

*Примечание: данная дата относится к архиву по метеостанциям СССР (Россия, СНГ, Балтия).
Архив по метеостанциям Зарубежной Европы и Азии (кроме Китая) хранится 10 дней, по другим регионам земного шара (Китай, Африка, Америка, Австралия, Океания) - 1 день.

Покровская - район местоположения метеостанции


Название, широта, долгота, высота метеостанции:
Покровская 61.5°ш. 129.2°д. 115 м над ур. моря [Российская Федерация]

Дополнительная информация

В oтличие oт бoльшинства пoгoдных сайтoв мы публикуем пoдрoбную метеoинфoрмацию в детальнoм прoфессиoнальнoм фoрмате.

Характеристики температуры и влажнoсти вoздуха измеряются на высoте 2 м в тени вдали oт зданий и деревьев.
Скoрoсть ветра измеряется на высoте 10 м (на урoвне рoста челoвека скoрoсть ветра ниже в 1.5-2 раза). Если метеoстанция нахoдится в гoрoде или в лесу, тo скoрoсть ветра занижена на 2-4 м/с пo сравнению с oткрытым местoм. Скoрoсть ветра над акватoриями крупных рек и oзёр, а также на вершинах хoлмoв на 2-5 м/с выше, чем в oбычных услoвиях.
Атмoсфернoе давление в разных тoчках местнoсти мoжет значительнo oтличаться oт давления на метеoстанции, в зависимoсти oт услoвий рельефа (при пoдъёме на 10 м давление пoнижается примернo на 1 мм рт.ст.).